Location: *
(35.8942°N, 23.3025°E)
Time: 12:03:43
(UTC+00:00)

ISS - Visible Passes

Search period start: 01 December 2021 00:00
Search period end: 11 December 2021 00:00
Orbit: 417 x 423 km, 51.6° (Epoch: 01 December)

Date Brightness Start Highest point End Pass type
(mag) Time Alt. Az. Time Alt. Az. Time Alt. Az.
03 Dec -1.4 16:16:18 10° N 16:17:10 11° NNE 16:17:10 11° NNE visible
04 Dec -1.4 17:04:19 10° NNW 17:05:13 16° NNW 17:05:13 16° NNW visible
05 Dec -2.3 16:17:24 10° NNW 16:20:04 21° NNE 16:20:25 21° NE visible
06 Dec -2.8 17:06:27 10° NW 17:08:54 44° WNW 17:08:54 44° WNW visible
07 Dec -3.7 16:19:16 10° NW 16:22:37 57° NE 16:24:42 21° ESE visible
07 Dec -0.1 17:57:45 10° WSW 17:57:46 10° WSW 17:57:46 10° WSW visible
08 Dec -1.2 17:09:21 10° WNW 17:11:59 21° SW 17:14:06 13° S visible
09 Dec -2.2 16:21:40 10° WNW 16:24:51 38° SW 16:28:01 10° SSE visible
